SL-14 DEB, 20129

Orbit data source: Space-Track

SL-14 DEB, 20129 is space debris in LEO originally from a launch on Thu, 28 Sep 1989 UTC launched from the Plesetsk Missile And Space Complex (PKMTR). Debris objects in space refer to the collection of defunct objects orbiting the Earth. Examples of debris include non-operational satellites, rocket bodies, and fragments generated from explosions, collisions, or faulty payload assembly.

Loading next visibility...
Identifier
20129, 1989-080E
Orbit
LEO
Country
Flag of CISCIS
Related business
Manufacturer
Unknown
Mission
Spacecraft
Bus & Motor
Unknown
Mass
Unknown
Launch date (UTC)
1989-09-28 (37 years ago)
Launch vehicle
Unknown
Launch site
Plesetsk Missile And Space Complex (PKMTR)
Object type
Payload
Rocket body
Debris
Shape & HBR
Unknown shape, 0.1 m
Radar Cross Section
Small (<0.1 m²)

Expand to show TLE details & history
Last TLE update: 1 day ago

TLE from 1 day ago
0 SL-14 DEB
1 20129U 89080E   26094.46968124  .00003898  00000-0  14802-2 0  9995
2 20129  82.4956 115.0736 0948597 182.6706 310.8021 12.97429778693004
Epoch: 2026-04-04T11:16Z
TLE epoch observation values (Epoch: 2026-04-04T11:16:20.459Z)
Latitude
54.80412°
Longitude
-77.50678°
Altitude
850.187 km
Speed
7.639 km/s
True Right ascension
18h 57m 28s
True Declination
54° 38' 39"
Sunlit
Object was in daylight at epoch
Visualization orbit readout
Latitude
Unknown
Longitude
Unknown
Altitude
Unknown
Speed
Unknown
Apparent Right ascension
Unknown
Apparent Declination
Unknown
Sunlit
N/A
Visualization observer readout
Local Sidereal Time
21:06:56
Azimuth
Unknown
Elevation
Unknown
Doppler factor
Unknown
Orbital elements
Apogee altitude
1,994.859 km
Perigee altitude
543.97 km
Semi-major axis
7,647.551 km
Eccentricity
0.09486
Inclination
82.4956°
RAAN
115.0736°
Arg. of periapsis
182.6706°
True anomaly
301.92121°
Mean anomaly
310.8021°
Eccentric anomaly
306.42909°
Mean motion
3.24534 °/min
Orbital period
110.93 mins
BSTAR
0.0014802
Loading maneuver chart data...
Computing Atmospheric mass density...
Loading historical data...
Loading historical data...
Loading historical data...
Loading historical data...
Loading historical data...
Loading historical data...
Loading historical data...

Documentation

Showing up to 5 results
|